Torna al catalogo

CHINASAT 2E

AttivoComunicazioniGEO
NORAD 49062·PAYLOAD·🇨🇳 China

Lanciato Aug 5, 2021 da Xichang Satellite Launch Center

Loading…

TLE

AggiornatoSource: Space-Track

Epoca: Sep 14, 2026, 14:16 UTC

1 49062U 21071A   26257.59451442 -.00000300  00000-0  00000-0 0  9992
2 49062   0.0230  85.5321 0000255 150.7299  69.3948  1.00274111 18934

Traccia CHINASAT 2E in tempo reale con AllMySat

Download on the App Store